Temp
-13 -13 -13 -14 -14 -14 -15 -15 -15 -16 -16 -16 -16 -16 -16 -16 -16 -16 -17 -16 -17 -16 -16 -16 -16 -16 -16 -16 -16 -16 -16 -16 -15 -15 -15 -15 -15 -15 -15 -15 -15 -15 -14
-13 -13 -13 -14 -14 -14 -14 -15 -15 -16 -15 -15 -15 -15 -16 -16 -16 -16 -16 -16 -16 -16 -16 -16 -16 -16 -16 -16 -16 -16 -16 -16 -16 -16 -15 -15 -15 -15 -15 -15 -15 -15 -15
-13 -13 -13 -14 -13 -13 -14 -14 -14 -14 -15 -14 -15 -15 -15 -15 -16 -16 -16 -16 -16 -16 -16 -16 -16 -16 -16 -16 -16 -16 -16 -16 -16 -16 -15 -15 -15 -14 -15 -15 -15 -15 -15
-14 -14 -13 -13 -13 -13 -13 -13 -13 -14 -14 -14 -15 -15 -15 -15 -15 -15 -16 -16 -16 -16 -16 -16 -16 -16 -16 -16 -16 -16 -16 -16 -16 -16 -15 -15 -15 -15 -15 -15 -15 -15 -15
-14 -14 -13 -13 -13 -14 -14 -14 -14 -14 -14 -14 -15 -15 -15 -15 -15 -15 -15 -15 -15 -16 -16 -16 -16 -16 -16 -16 -16 -16 -16 -16 -16 -16 -16 -15 -15 -15 -16 -16 -16 -16 -16
-14 -14 -14 -13 -13 -13 -14 -14 -14 -14 -14 -14 -14 -15 -15 -16 -15 -15 -15 -15 -16 -16 -16 -16 -16 -16 -16 -16 -16 -16 -16 -16 -16 -16 -16 -16 -16 -16 -16 -16 -16 -16 -16
-14 -14 -14 -14 -13 -13 -13 -14 -14 -14 -14 -14 -14 -15 -15 -15 -15 -15 -15 -15 -15 -16 -16 -16 -16 -16 -16 -16 -16 -16 -16 -16 -16 -16 -16 -16 -16 -16 -16 -16 -16 -16 -16
-14 -14 -14 -14 -14 -14 -13 -14 -14 -14 -15 -15 -15 -15 -15 -14 -15 -15 -15 -15 -15 -16 -16 -16 -16 -16 -16 -16 -16 -16 -16 -16 -16 -16 -16 -16 -16 -16 -16 -16 -16 -16 -16
-14 -14 -14 -14 -14 -14 -14 -13 -14 -14 -14 -14 -14 -14 -15 -15 -15 -15 -15 -15 -16 -16 -16 -16 -16 -16 -16 -16 -16 -16 -16 -17 -16 -16 -16 -16 -16 -16 -16 -16 -16 -16 -17
-15 -15 -14 -15 -15 -14 -14 -14 -14 -13 -13 -14 -14 -14 -15 -15 -15 -16 -16 -16 -16 -16 -16 -16 -17 -16 -16 -16 -16 -17 -16 -16 -16 -16 -16 -15 -16 -16 -16 -16 -16 -16 -16
-15 -15 -15 -15 -15 -15 -15 -14 -14 -14 -14 -14 -14 -14 -14 -14 -15 -16 -16 -16 -16 -16 -16 -16 -16 -16 -16 -16 -16 -16 -16 -16 -16 -16 -16 -16 -16 -16 -16 -16 -17 -17 -17
-15 -15 -15 -15 -15 -15 -15 -15 -14 -14 -14 -14 -14 -14 -14 -14 -14 -15 -15 -16 -16 -16 -16 -16 -15 -15 -16 -16 -16 -16 -16 -16 -16 -16 -16 -16 -16 -16 -17 -17 -17 -17 -18
-15 -15 -16 -16 -15 -15 -15 -15 -15 -15 -15 -15 -15 -15 -15 -15 -15 -15 -15 -15 -15 -15 -16 -16 -16 -16 -16 -16 -16 -17 -17 -16 -16 -16 -16 -16 -17 -17 -17 -17 -17 -18 -18
-15 -15 -16 -16 -16 -16 -16 -15 -15 -15 -15 -15 -15 -15 -15 -16 -15 -16 -16 -16 -16 -16 -16 -16 -16 -16 -17 -17 -17 -17 -17 -16 -16 -16 -17 -17 -17 -17 -17 -17 -17 -18 -19
-16 -16 -16 -16 -16 -16 -16 -16 -16 -16 -16 -16 -16 -16 -16 -16 -16 -16 -16 -16 -16 -16 -16 -16 -17 -17 -17 -16 -16 -16 -16 -17 -17 -17 -17 -17 -17 -17 -17 -18 -19 -19 -19
-16 -16 -16 -16 -16 -16 -16 -16 -16 -16 -16 -16 -16 -16 -15 -15 -15 -16 -16 -16 -16 -17 -17 -17 -17 -16 -17 -17 -17 -17 -17 -17 -17 -17 -17 -17 -17 -18 -18 -18 -19 -19 -19
-17 -17 -16 -16 -17 -17 -17 -17 -17 -17 -17 -16 -16 -16 -16 -16 -16 -16 -16 -17 -17 -17 -17 -17 -17 -17 -17 -17 -17 -17 -18 -18 -17 -17 -17 -18 -17 -18 -18 -19 -19 -19 -20
-17 -17 -17 -17 -17 -17 -17 -17 -17 -17 -17 -17 -17 -17 -17 -17 -16 -16 -17 -17 -17 -17 -17 -17 -17 -17 -17 -17 -17 -18 -18 -18 -18 -18 -18 -18 -18 -19 -19 -19 -20 -20 -20
-17 -17 -17 -17 -17 -17 -17 -16 -17 -17 -17 -17 -17 -17 -17 -17 -17 -17 -17 -17 -17 -17 -17 -17 -17 -17 -18 -18 -18 -18 -18 -18 -18 -18 -18 -19 -19 -20 -20 -20 -20 -20 -20
-16 -17 -17 -17 -17 -17 -17 -17 -17 -17 -17 -17 -17 -17 -17 -17 -17 -17 -17 -17 -18 -18 -18 -18 -18 -18 -18 -18 -19 -19 -19 -19 -19 -19 -19 -19 -19 -20 -20 -20 -20 -20 -21
-16 -17 -17 -17 -17 -17 -17 -17 -17 -17 -17 -17 -17 -17 -17 -17 -17 -18 -17 -17 -18 -18 -18 -18 -18 -18 -18 -19 -19 -19 -19 -19 -19 -19 -19 -19 -20 -20 -20 -20 -20 -21 -21
-17 -17 -17 -17 -17 -17 -17 -17 -17 -17 -17 -17 -17 -17 -18 -18 -17 -18 -18 -17 -18 -18 -18 -18 -18 -18 -18 -19 -19 -19 -19 -19 -19 -19 -19 -20 -20 -20 -21 -21 -21 -21 -22
-17 -17 -17 -17 -17 -17 -17 -17 -17 -17 -17 -17 -18 -18 -18 -18 -18 -18 -18 -18 -18 -18 -18 -19 -19 -19 -19 -19 -19 -20 -19 -19 -20 -20 -20 -20 -20 -21 -21 -21 -21 -22 -23
-17 -17 -17 -17 -17 -17 -17 -17 -17 -17 -17 -17 -18 -18 -18 -18 -18 -18 -18 -18 -19 -19 -19 -19 -19 -19 -19 -19 -20 -20 -20 -20 -20 -20 -21 -21 -21 -21 -22 -22 -22 -23 -24
-18 -17 -17 -17 -17 -17 -17 -17 -17 -17 -18 -18 -18 -18 -18 -18 -18 -18 -19 -19 -19 -19 -19 -19 -19 -20 -20 -20 -20 -20 -20 -21 -21 -21 -21 -22 -22 -22 -22 -22 -23 -23 -24
-18 -18 -18 -18 -18 -18 -18 -18 -18 -18 -18 -18 -18 -18 -18 -18 -18 -18 -19 -19 -19 -19 -19 -19 -20 -20 -20 -20 -20 -21 -21 -21 -21 -22 -22 -22 -23 -23 -23 -23 -24 -24 -25
Height
5692 5688 5682 5676 5669 5666 5663 5658 5656 5653 5650 5647 5645 5645 5645 5646 5647 5649 5650 5652 5656 5658 5660 5663 5667 5671 5676 5680 5684 5688 5692 5697 5701 5704 5708 5710 5713 5715 5716 5716 5716 5715 5717
5692 5689 5684 5679 5674 5672 5670 5667 5664 5661 5658 5656 5655 5654 5654 5654 5654 5655 5656 5658 5660 5663 5665 5669 5674 5678 5680 5683 5688 5692 5696 5700 5704 5707 5710 5712 5714 5714 5713 5713 5713 5714 5714
5692 5690 5687 5682 5678 5675 5674 5673 5671 5668 5667 5664 5661 5659 5659 5658 5659 5659 5660 5663 5667 5670 5672 5675 5679 5682 5686 5690 5693 5695 5698 5702 5705 5707 5708 5711 5711 5710 5711 5711 5711 5712 5712
5691 5689 5687 5684 5679 5676 5676 5675 5673 5673 5670 5669 5669 5667 5663 5661 5661 5664 5666 5668 5672 5674 5677 5681 5683 5687 5690 5694 5696 5699 5702 5705 5707 5708 5709 5710 5710 5710 5710 5710 5710 5710 5710
5689 5688 5687 5685 5681 5678 5677 5675 5675 5674 5672 5671 5670 5670 5669 5669 5669 5671 5673 5676 5679 5681 5683 5686 5688 5691 5693 5695 5698 5701 5704 5706 5706 5708 5709 5710 5710 5710 5709 5709 5709 5708 5708
5686 5686 5686 5685 5683 5679 5677 5676 5675 5675 5674 5673 5671 5672 5673 5673 5675 5676 5678 5680 5682 5684 5686 5689 5691 5693 5695 5698 5701 5703 5705 5706 5708 5709 5709 5708 5708 5707 5707 5706 5706 5705 5706
5683 5684 5684 5684 5683 5680 5678 5676 5676 5676 5675 5674 5676 5675 5676 5677 5677 5678 5680 5682 5683 5685 5687 5690 5693 5695 5697 5699 5701 5703 5705 5705 5705 5705 5705 5705 5704 5705 5705 5705 5705 5704 5703
5680 5681 5682 5682 5682 5681 5679 5677 5676 5677 5676 5676 5676 5677 5679 5679 5680 5680 5682 5683 5685 5687 5689 5691 5693 5695 5697 5699 5701 5702 5703 5703 5704 5704 5704 5704 5704 5704 5704 5704 5702 5701 5699
5676 5677 5678 5679 5680 5681 5680 5678 5676 5676 5676 5676 5676 5676 5678 5680 5681 5682 5683 5684 5685 5687 5689 5691 5693 5695 5696 5698 5699 5700 5701 5702 5702 5702 5702 5702 5702 5702 5701 5700 5698 5696 5694
5671 5673 5674 5675 5677 5678 5679 5680 5678 5677 5677 5677 5676 5676 5677 5679 5680 5682 5684 5685 5687 5689 5690 5692 5693 5693 5694 5695 5696 5697 5697 5699 5699 5700 5700 5700 5700 5698 5698 5696 5693 5690 5686
5666 5668 5670 5670 5673 5675 5676 5677 5677 5676 5677 5678 5679 5679 5679 5679 5679 5680 5683 5685 5686 5688 5690 5692 5693 5693 5693 5694 5695 5695 5696 5697 5697 5698 5697 5697 5696 5695 5693 5691 5688 5685 5682
5659 5662 5664 5665 5667 5670 5672 5674 5675 5674 5675 5677 5679 5680 5680 5681 5681 5681 5683 5684 5686 5687 5689 5689 5691 5691 5692 5693 5694 5694 5694 5694 5694 5694 5694 5693 5692 5690 5688 5685 5682 5678 5673
5651 5655 5658 5660 5661 5665 5667 5669 5671 5672 5672 5673 5675 5677 5679 5680 5681 5682 5683 5683 5685 5686 5687 5688 5690 5690 5690 5690 5690 5690 5691 5691 5692 5691 5691 5689 5687 5685 5682 5678 5674 5671 5666
5642 5646 5650 5654 5655 5658 5661 5664 5666 5668 5669 5670 5670 5672 5675 5677 5679 5679 5680 5681 5682 5683 5684 5685 5686 5686 5687 5687 5688 5688 5689 5689 5688 5687 5685 5683 5681 5678 5675 5672 5668 5663 5658
5632 5637 5641 5646 5648 5651 5654 5657 5659 5663 5665 5667 5668 5667 5669 5672 5674 5676 5677 5677 5678 5679 5680 5681 5681 5682 5683 5684 5684 5684 5683 5682 5681 5680 5679 5677 5675 5671 5668 5664 5660 5655 5650
5622 5628 5632 5637 5640 5643 5646 5650 5653 5656 5659 5661 5663 5663 5664 5666 5668 5670 5672 5673 5674 5675 5676 5676 5676 5677 5677 5677 5677 5677 5676 5675 5674 5673 5671 5670 5667 5663 5660 5656 5651 5647 5642
5612 5618 5622 5627 5631 5634 5638 5643 5646 5648 5651 5654 5656 5658 5660 5661 5663 5665 5667 5667 5668 5669 5669 5670 5670 5671 5671 5671 5670 5670 5669 5668 5667 5665 5664 5661 5658 5655 5651 5647 5643 5638 5632
5600 5606 5611 5616 5621 5624 5628 5633 5638 5640 5643 5646 5649 5652 5654 5655 5656 5658 5660 5662 5663 5664 5665 5666 5665 5665 5665 5664 5663 5663 5662 5661 5659 5658 5655 5653 5650 5647 5642 5638 5633 5628 5620
5589 5594 5600 5606 5611 5615 5618 5623 5630 5633 5636 5638 5641 5644 5646 5648 5649 5650 5652 5654 5656 5658 5658 5659 5659 5659 5658 5657 5656 5656 5655 5653 5651 5649 5647 5645 5642 5638 5633 5628 5624 5617 5610
5578 5583 5588 5594 5600 5605 5609 5614 5620 5625 5627 5629 5632 5635 5638 5640 5641 5642 5643 5646 5648 5650 5651 5651 5651 5652 5651 5650 5649 5648 5646 5645 5643 5642 5640 5637 5633 5630 5626 5619 5613 5606 5599
5566 5571 5577 5583 5588 5594 5599 5604 5609 5614 5617 5620 5623 5625 5628 5630 5634 5636 5637 5638 5640 5641 5642 5643 5643 5643 5643 5642 5641 5640 5639 5638 5636 5634 5631 5627 5623 5619 5614 5608 5602 5596 5590
5554 5559 5565 5571 5577 5583 5589 5594 5598 5603 5607 5610 5613 5616 5620 5622 5624 5627 5628 5630 5631 5632 5633 5634 5634 5635 5634 5633 5632 5631 5630 5628 5626 5623 5620 5617 5613 5608 5603 5598 5591 5584 5577
5541 5546 5552 5559 5565 5570 5576 5582 5587 5592 5595 5601 5604 5607 5609 5612 5615 5617 5618 5620 5621 5623 5624 5624 5624 5625 5625 5624 5623 5621 5620 5618 5616 5613 5610 5606 5602 5598 5594 5588 5580 5573 5565
5529 5534 5540 5546 5552 5559 5565 5571 5576 5580 5584 5590 5594 5597 5599 5602 5604 5606 5608 5610 5611 5612 5613 5614 5615 5615 5614 5613 5613 5611 5610 5608 5605 5602 5599 5595 5590 5585 5581 5575 5568 5561 5554
5515 5521 5527 5534 5540 5546 5553 5559 5564 5569 5573 5579 5583 5585 5587 5591 5593 5596 5598 5599 5600 5601 5602 5603 5604 5604 5604 5603 5602 5601 5599 5596 5594 5591 5587 5584 5579 5575 5569 5563 5557 5551 5544
5504 5511 5517 5523 5530 5536 5542 5548 5554 5558 5562 5567 5570 5573 5576 5579 5582 5583 5586 5588 5589 5589 5590 5591 5592 5593 5592 5592 5591 5590 5588 5586 5583 5580 5577 5573 5570 5566 5560 5554 5547 5541 5534
Wind_Speed
22 27 22 14 21 27 27 28 22 19 17 17 16 15 13 15 13 13 12 14 16 15 14 17 19 20 17 16 13 13 12 12 13 11 8 5 3 4 9 9 9 9 10
17 22 21 10 16 14 20 16 15 14 16 14 14 11 9 7 8 8 12 17 17 16 16 19 20 19 18 18 16 20 20 16 13 9 6 3 4 8 9 10 10 9 9
12 16 20 13 7 10 10 14 17 19 20 19 16 12 9 6 7 9 19 25 25 23 20 18 19 20 22 19 19 17 15 13 7 5 1 5 9 10 10 10 11 12 12
9 11 15 14 5 4 2 4 3 6 12 12 9 11 10 8 12 20 22 23 20 21 21 20 21 22 20 17 16 12 10 8 5 1 4 10 12 10 9 11 13 15 15
7 7 9 12 7 3 6 7 7 9 3 3 7 10 12 14 21 23 22 19 20 20 20 17 14 14 14 14 12 9 5 2 2 5 9 9 9 11 11 12 14 15 16
8 5 5 7 9 3 2 3 5 9 12 12 9 7 7 13 18 12 10 9 9 13 14 12 11 9 8 8 6 3 5 6 6 7 11 13 13 14 13 13 14 14 16
9 7 6 5 6 8 4 4 3 3 8 8 5 6 6 6 11 12 10 9 10 10 11 9 8 6 6 3 1 4 6 7 11 14 13 11 11 10 11 14 15 17 20
12 11 8 7 4 4 4 4 5 3 4 6 4 5 4 4 5 10 10 8 7 8 9 10 9 5 4 3 4 7 6 9 9 11 11 12 12 13 15 18 20 23 27
16 14 12 10 8 4 2 3 1 5 4 3 2 2 4 6 4 3 7 10 12 12 12 8 5 4 5 6 6 7 6 7 9 8 10 12 15 17 21 23 25 28 32
21 18 15 13 12 8 6 3 4 5 5 5 6 5 5 8 6 6 9 10 11 10 9 4 4 5 8 8 8 7 2 5 7 10 13 15 16 19 23 27 30 33 36
23 22 20 17 15 14 10 9 7 6 5 3 3 4 6 8 7 10 10 11 8 9 8 7 6 2 3 3 1 1 3 6 9 11 14 17 20 24 27 30 33 37 41
27 26 25 20 18 17 16 13 13 9 8 7 6 4 2 2 4 6 8 8 9 9 9 9 6 4 3 3 4 6 7 10 13 15 16 18 22 26 29 34 38 40 41
30 29 28 25 21 20 19 17 16 14 11 9 7 7 6 6 6 6 6 7 7 7 7 8 8 7 7 8 9 10 11 13 16 15 17 23 26 29 31 31 34 36 41
34 33 31 30 26 23 22 21 20 19 17 14 12 11 9 8 8 8 8 8 8 8 8 8 9 10 11 13 13 12 14 16 13 15 19 23 26 23 29 33 35 39 42
37 36 34 33 30 27 26 25 24 23 21 19 17 16 15 13 12 11 10 11 12 12 13 13 13 14 13 12 13 15 16 14 16 19 19 18 22 26 28 32 38 41 45
40 38 35 35 33 31 29 29 27 25 24 22 21 19 18 16 16 17 16 16 16 16 15 15 14 13 13 14 15 15 14 16 16 17 14 21 25 28 34 37 41 44 50
42 40 39 38 36 34 33 32 31 29 26 25 25 22 18 16 17 19 20 21 20 19 17 16 16 17 17 17 15 17 18 17 18 19 21 25 29 33 36 40 43 47 52
46 44 43 41 39 38 37 36 34 32 29 28 26 24 22 20 19 20 21 23 23 22 20 19 20 20 19 18 19 21 19 19 20 21 23 27 30 33 35 39 44 50 54
50 47 45 43 42 42 41 39 37 35 33 30 28 28 27 26 23 22 23 24 25 26 24 24 25 24 22 22 22 23 23 22 21 23 27 29 30 33 35 40 45 50 54
54 51 48 47 45 44 41 38 36 34 33 30 29 29 28 26 26 25 23 24 25 26 27 26 26 26 26 26 27 26 26 23 24 27 29 32 32 36 40 42 45 50 55
54 54 52 50 48 46 43 40 38 36 34 32 32 30 30 28 27 25 22 24 26 27 28 28 28 28 29 30 30 29 28 27 28 31 33 34 35 38 42 44 46 51 55
53 58 57 54 51 49 46 43 41 39 39 36 34 33 32 30 29 28 27 27 27 29 29 29 30 30 31 33 30 30 30 31 32 32 34 36 38 41 44 46 47 51 54
45 56 59 57 55 52 49 47 46 45 42 40 38 35 34 34 32 32 31 30 29 31 31 31 30 31 33 33 31 31 32 34 34 35 35 37 40 43 45 46 48 51 53
45 48 59 59 57 54 51 50 48 46 44 44 40 37 39 36 33 33 32 32 32 32 33 32 31 31 33 33 33 33 33 35 36 37 38 39 42 44 45 47 49 52 54
42 42 56 60 59 56 54 53 51 48 46 46 43 42 43 40 38 37 37 36 34 35 36 34 33 33 34 35 35 36 36 36 38 38 39 41 43 45 46 48 52 54 56
47 49 54 56 56 55 54 53 51 49 48 48 47 47 48 46 43 41 41 40 37 38 39 37 35 35 36 37 37 39 39 40 39 39 41 42 44 47 47 50 52 54 57
Wind_Direction
4 5 22 46 50 51 61 61 79 81 96 108 110 106 102 115 116 127 136 135 140 146 152 157 148 154 148 143 134 143 154 164 144 135 139 157 203 265 284 278 259 253 233
4 7 21 47 53 55 52 56 55 73 90 82 89 92 96 119 125 120 132 135 142 151 150 124 130 125 120 114 128 137 130 127 130 139 144 183 275 299 303 280 267 242 247
360 7 16 38 104 46 59 54 38 36 54 62 55 67 92 91 101 130 129 130 130 129 125 121 123 117 111 114 112 111 115 121 116 99 62 329 320 310 290 272 274 254 253
349 2 5 29 41 234 336 52 41 66 47 23 35 53 46 80 113 127 121 125 122 116 114 114 114 113 114 112 107 115 125 131 128 132 319 323 327 320 298 279 279 269 267
318 338 2 14 33 101 78 95 66 51 73 336 24 51 75 107 133 124 116 122 122 117 114 111 112 116 112 105 103 102 127 190 290 307 317 327 326 311 295 287 289 279 276
282 295 331 351 19 349 318 142 114 86 78 63 39 33 80 109 157 149 137 111 132 132 139 136 132 132 122 113 117 75 18 356 334 305 293 292 298 307 297 295 301 296 294
257 263 274 311 336 22 272 274 230 160 132 121 110 73 76 144 149 162 170 148 147 152 173 162 150 146 154 152 64 342 334 333 328 329 334 332 340 327 320 321 316 311 310
243 251 248 269 291 329 22 243 275 181 171 163 144 163 167 140 153 176 190 193 182 174 168 177 181 186 209 239 288 309 315 323 335 339 343 349 349 344 336 328 328 323 318
235 240 243 243 261 262 299 44 107 271 284 284 172 129 160 177 184 187 175 175 158 148 151 159 180 222 249 262 268 284 296 322 335 348 350 349 342 337 331 323 318 313 313
234 234 235 237 243 248 252 213 141 113 94 89 111 146 191 216 198 185 178 169 173 176 180 198 192 252 252 268 284 293 315 337 336 340 338 331 323 321 323 328 327 323 319
235 232 234 232 235 237 238 247 216 176 154 130 112 104 94 94 152 189 190 195 195 218 231 228 217 208 154 161 174 336 312 307 313 315 314 324 338 338 331 325 325 328 328
233 232 234 229 233 233 236 238 242 220 203 200 200 205 177 121 101 115 153 188 199 184 186 192 211 214 228 257 269 275 296 309 310 317 330 339 332 326 330 333 334 335 337
228 231 232 231 229 233 235 237 242 240 225 226 229 239 239 225 215 205 199 197 203 209 218 228 239 245 247 257 275 299 313 313 314 324 332 328 331 338 340 343 347 344 337
225 227 230 231 226 231 235 236 237 240 239 231 223 222 233 244 246 235 220 216 224 231 239 248 256 264 279 297 304 302 308 318 326 318 320 336 335 338 343 340 336 334 331
224 225 226 231 229 227 232 234 235 240 241 242 241 227 223 228 236 244 248 253 253 255 258 263 272 279 287 291 295 295 299 301 305 322 332 332 334 334 330 327 329 331 328
221 223 225 229 230 229 229 234 235 235 239 241 242 240 236 239 248 248 247 251 252 255 262 261 258 259 264 272 283 290 288 294 306 312 307 318 324 322 325 327 328 327 323
220 220 221 225 227 228 229 234 235 235 238 244 244 246 241 242 249 254 255 252 252 254 250 253 260 266 271 274 274 273 280 290 298 300 301 312 314 320 324 326 326 324 323
216 219 220 222 225 225 227 231 236 235 234 239 246 248 250 247 250 256 264 267 259 258 264 268 269 270 270 266 268 276 283 287 292 298 308 316 318 319 321 323 324 324 323
215 218 221 222 225 225 227 229 236 238 234 233 238 245 247 246 252 258 260 259 258 257 259 265 270 270 266 267 274 278 280 283 290 300 310 314 316 318 321 323 324 326 324
226 217 219 221 222 226 228 229 234 238 237 234 232 236 241 246 251 254 255 257 258 262 266 268 270 269 272 276 278 279 283 287 295 297 305 313 314 316 319 323 324 325 324
233 221 220 221 222 225 227 227 228 232 232 233 235 236 241 245 256 255 256 260 264 267 268 270 271 272 276 280 281 284 287 291 298 298 305 310 313 314 315 319 322 326 326
238 229 219 221 221 224 227 228 226 226 230 234 238 241 244 248 250 255 258 262 263 264 265 266 267 272 279 281 282 286 288 288 291 296 301 306 309 311 315 319 323 325 324
240 234 225 222 222 222 223 226 229 228 231 236 238 238 241 246 249 253 256 259 260 262 263 261 265 275 283 284 281 284 288 288 289 294 300 305 307 311 316 317 321 322 323
235 239 228 223 223 223 225 226 228 231 233 237 236 237 242 245 248 253 254 255 256 258 258 259 265 273 278 280 282 285 289 287 287 292 297 302 306 310 313 315 320 321 323
240 243 235 225 224 223 224 226 229 233 236 240 240 240 244 247 248 251 251 252 254 253 256 259 263 270 274 278 283 286 288 283 285 291 296 300 306 309 312 317 319 320 320
240 239 234 227 226 226 228 231 234 237 237 239 242 245 250 252 252 250 254 256 253 249 255 258 261 266 271 277 282 286 287 284 284 289 295 301 306 310 313 316 316 317 318